Location: *
(34.6780°N, 135.8310°E)
Time: 21:49:43
(UTC+00:00)

Cosmos 389 Rocket - Pass Details

Date: 18 October 2019
Orbit: 445 x 477 km, 81.1° (Epoch: 11 November)

Event Time Altitude Azimuth Distance (km) Brightness Sun altitude
Exits shadow 20:27:52 11° 287° (WNW) 1,519 4.4 -8.4°
Maximum altitude 20:27:53 11° 288° (WNW) 1,519 4.4 -8.4°
Drops below altitude 10° 20:28:47 10° 303° (WNW) 1,570 4.6 -8.2°
Sets 20:32:21 0° 342° (NNW) 2,452 5.9 -7.5°
